Total_Precipitation_Accumulation
2.02 1.98 2.00 1.96 1.88 1.75 1.66 1.56 1.48 1.42 1.39 1.35 1.35 1.34 1.31 1.30 1.28 1.29 1.24 1.28 1.38 1.40 1.37 1.39 1.41 1.47 1.54 1.50 1.56 1.68 1.85 2.10 2.26 2.04 1.87 1.76 1.73 1.77 1.74 1.61 1.51 1.42 1.32
1.65 1.78 1.87 1.78 1.71 1.64 1.60 1.57 1.51 1.37 1.34 1.31 1.32 1.24 1.10 1.06 1.15 1.22 1.21 1.18 1.30 1.31 1.27 1.34 1.35 1.38 1.46 1.49 1.58 1.67 1.77 1.96 2.11 2.17 1.99 1.83 1.76 1.75 1.75 1.66 1.37 1.24 1.22
1.42 1.45 1.55 1.57 1.54 1.51 1.38 1.35 1.35 1.32 1.30 1.24 1.19 1.18 1.10 1.00 1.02 1.04 1.08 1.06 1.13 1.19 1.19 1.27 1.31 1.37 1.38 1.42 1.51 1.57 1.69 1.80 1.99 2.09 1.98 1.85 1.76 1.70 1.82 1.68 1.53 1.58 1.28
1.31 1.42 1.44 1.45 1.50 1.53 1.48 1.40 1.34 1.28 1.23 1.19 1.11 1.06 1.04 0.99 0.88 0.84 0.88 0.97 1.06 1.07 1.06 1.15 1.21 1.28 1.29 1.38 1.41 1.50 1.58 1.77 1.95 2.02 1.91 1.79 1.73 1.75 1.87 1.87 1.77 1.67 1.50
1.16 1.29 1.39 1.34 1.31 1.37 1.44 1.35 1.19 1.12 1.05 1.03 0.97 0.93 0.94 0.88 0.76 0.78 0.81 0.83 0.94 0.98 0.98 1.04 1.09 1.10 1.12 1.18 1.19 1.33 1.51 1.71 1.82 1.92 1.87 1.81 1.75 1.87 1.88 1.82 1.76 1.73 1.56
1.05 1.19 1.28 1.28 1.26 1.26 1.30 1.26 1.19 1.13 1.08 1.04 1.00 0.96 0.91 0.78 0.75 0.72 0.73 0.78 0.87 0.97 1.07 1.07 0.99 0.97 0.93 0.89 0.94 1.04 1.24 1.50 1.74 1.87 1.83 1.82 1.79 1.85 1.97 1.94 1.90 1.92 1.84
1.13 1.14 1.20 1.24 1.28 1.28 1.25 1.24 1.24 1.26 1.24 1.14 1.04 1.00 0.94 0.83 0.72 0.60 0.59 0.68 0.87 1.01 1.10 1.08 0.90 0.83 0.94 0.95 0.95 0.96 1.07 1.20 1.46 1.75 1.86 1.77 1.80 1.89 2.08 2.13 2.06 2.03 1.94
1.17 1.10 1.10 1.10 1.12 1.12 1.17 1.22 1.23 1.23 1.17 1.11 1.03 0.99 0.96 0.76 0.64 0.56 0.58 0.64 0.78 0.83 0.86 0.93 1.01 1.01 0.94 0.99 1.00 1.08 1.15 1.24 1.31 1.46 1.70 1.67 1.63 1.77 1.96 2.00 1.98 1.93 1.84
1.09 1.03 0.97 0.91 0.95 0.96 1.02 1.15 1.26 1.24 1.12 1.02 0.94 0.93 0.90 0.76 0.68 0.63 0.63 0.67 0.74 0.71 0.68 0.73 0.80 0.86 0.85 0.92 1.04 1.22 1.27 1.38 1.34 1.50 1.53 1.48 1.49 1.54 1.55 1.65 1.92 2.09 1.98
1.02 0.93 0.85 0.86 0.92 0.93 0.98 1.09 1.17 1.22 1.10 0.91 0.84 0.86 0.82 0.79 0.69 0.58 0.56 0.58 0.69 0.71 0.73 0.78 0.75 0.68 0.73 0.83 1.04 1.30 1.47 1.52 1.58 1.70 1.65 1.62 1.53 1.50 1.43 1.49 1.83 2.09 2.07
0.89 0.86 0.86 0.89 0.96 0.95 1.05 1.13 1.09 1.00 0.98 0.91 0.85 0.84 0.75 0.63 0.54 0.45 0.45 0.51 0.61 0.70 0.76 0.84 0.84 0.69 0.63 0.71 0.92 1.16 1.34 1.40 1.65 1.90 1.75 1.58 1.52 1.49 1.46 1.47 1.64 1.78 1.78
0.84 0.86 0.92 0.93 0.87 0.85 1.01 1.07 0.99 0.95 0.94 0.92 0.91 0.85 0.72 0.58 0.49 0.43 0.38 0.38 0.43 0.62 0.80 0.83 0.83 0.77 0.72 0.78 0.93 1.10 1.23 1.42 1.65 1.78 1.58 1.41 1.31 1.29 1.34 1.31 1.30 1.34 1.41
0.81 0.94 0.99 0.92 0.98 0.95 0.94 0.96 0.96 0.97 0.89 0.83 0.84 0.79 0.72 0.64 0.55 0.43 0.38 0.37 0.41 0.53 0.71 0.78 0.75 0.71 0.81 1.02 1.15 1.25 1.41 1.64 1.70 1.57 1.44 1.31 1.20 1.22 1.21 1.20 1.20 1.25 1.25
0.86 0.94 0.95 0.96 1.04 1.02 0.92 0.79 0.76 0.78 0.76 0.72 0.72 0.68 0.69 0.70 0.57 0.48 0.48 0.47 0.50 0.56 0.70 0.83 0.88 0.88 1.03 1.22 1.35 1.45 1.57 1.67 1.53 1.40 1.34 1.22 1.12 1.19 1.24 1.19 1.30 1.34 1.33
0.79 0.85 0.85 0.85 0.92 0.98 0.87 0.71 0.65 0.59 0.53 0.52 0.53 0.51 0.57 0.58 0.48 0.45 0.43 0.48 0.56 0.61 0.70 0.87 1.00 1.03 1.14 1.29 1.42 1.49 1.54 1.55 1.48 1.34 1.28 1.21 1.15 1.14 1.11 1.06 1.18 1.26 1.30
0.73 0.71 0.67 0.71 0.76 0.79 0.78 0.69 0.51 0.36 0.29 0.26 0.28 0.32 0.33 0.34 0.32 0.32 0.34 0.40 0.47 0.58 0.74 1.01 1.10 1.08 1.12 1.20 1.31 1.42 1.43 1.41 1.36 1.37 1.37 1.33 1.26 1.16 1.12 1.06 1.08 1.16 1.24
0.67 0.65 0.57 0.56 0.63 0.66 0.66 0.73 0.66 0.43 0.24 0.17 0.17 0.22 0.24 0.23 0.25 0.26 0.29 0.35 0.43 0.56 0.77 1.00 1.11 1.13 1.15 1.18 1.21 1.27 1.34 1.35 1.29 1.30 1.33 1.28 1.18 1.11 1.08 1.08 1.08 1.14 1.17
0.52 0.48 0.50 0.57 0.57 0.54 0.53 0.53 0.57 0.62 0.55 0.41 0.27 0.24 0.24 0.25 0.28 0.28 0.31 0.36 0.45 0.54 0.76 0.96 1.06 1.11 1.15 1.19 1.19 1.18 1.23 1.28 1.23 1.18 1.22 1.20 1.13 1.08 1.09 1.11 1.11 1.06 1.06
0.49 0.47 0.48 0.49 0.47 0.45 0.43 0.42 0.43 0.50 0.54 0.55 0.50 0.39 0.34 0.33 0.34 0.35 0.41 0.50 0.60 0.65 0.72 0.83 0.94 1.02 1.03 1.05 1.10 1.13 1.16 1.21 1.15 1.11 1.14 1.15 1.13 1.10 1.04 0.97 0.94 0.86 0.91
0.42 0.38 0.39 0.41 0.38 0.37 0.39 0.42 0.41 0.45 0.49 0.52 0.55 0.52 0.49 0.55 0.63 0.58 0.53 0.58 0.64 0.64 0.65 0.75 0.84 0.88 0.89 0.85 0.88 0.92 0.96 0.97 0.97 1.02 1.08 1.04 0.98 0.95 0.88 0.81 0.81 0.83 0.88
0.37 0.37 0.37 0.35 0.32 0.32 0.36 0.39 0.37 0.41 0.44 0.46 0.43 0.45 0.58 0.64 0.71 0.68 0.65 0.69 0.74 0.72 0.70 0.73 0.76 0.77 0.77 0.75 0.74 0.74 0.78 0.83 0.86 0.88 0.95 0.93 0.86 0.82 0.78 0.72 0.69 0.69 0.70
0.34 0.37 0.36 0.33 0.32 0.31 0.31 0.33 0.33 0.38 0.41 0.46 0.45 0.46 0.58 0.60 0.64 0.68 0.73 0.79 0.83 0.78 0.73 0.74 0.73 0.71 0.71 0.71 0.67 0.67 0.70 0.74 0.76 0.78 0.80 0.78 0.76 0.71 0.63 0.61 0.59 0.58 0.59
0.34 0.37 0.37 0.36 0.35 0.34 0.34 0.34 0.34 0.37 0.40 0.44 0.48 0.50 0.55 0.62 0.66 0.73 0.81 0.84 0.83 0.83 0.76 0.70 0.76 0.78 0.70 0.64 0.58 0.56 0.58 0.61 0.61 0.67 0.76 0.77 0.69 0.62 0.57 0.54 0.54 0.54 0.53
0.33 0.33 0.34 0.37 0.42 0.45 0.44 0.40 0.34 0.31 0.33 0.37 0.41 0.43 0.48 0.55 0.60 0.63 0.70 0.74 0.81 0.85 0.82 0.79 0.83 0.77 0.65 0.58 0.53 0.51 0.53 0.56 0.58 0.62 0.67 0.70 0.65 0.57 0.50 0.49 0.49 0.52 0.55
0.32 0.33 0.34 0.35 0.35 0.38 0.43 0.41 0.35 0.33 0.33 0.32 0.32 0.35 0.39 0.45 0.49 0.54 0.59 0.62 0.66 0.75 0.74 0.75 0.76 0.67 0.58 0.53 0.50 0.50 0.57 0.55 0.52 0.58 0.63 0.66 0.59 0.52 0.49 0.44 0.45 0.47 0.50
0.28 0.29 0.32 0.32 0.30 0.30 0.32 0.33 0.32 0.33 0.34 0.33 0.30 0.31 0.36 0.38 0.42 0.46 0.50 0.53 0.56 0.60 0.62 0.67 0.66 0.57 0.48 0.46 0.45 0.43 0.40 0.35 0.33 0.40 0.53 0.57 0.50 0.45 0.47 0.47 0.44 0.47 0.51